Torna al catalogo

STARLINK-11699

AttivoComunicazioniVLEO
NORAD 63762·PAYLOAD·🇺🇸 United States

Lanciato Apr 29, 2025 da Cape Canaveral Space Force Station

Loading…

Prossimi Passaggi (prossime 24 ore)

TLE

AggiornatoSource: CelesTrak SupGP

Epoca: Sep 14, 2026, 21:05 UTC

1 63762C 25089M   26257.87895833  .00064899  00000+0  50412-3 0  2578
2 63762  43.0008 232.2561 0001608 254.9500 180.7606 15.70803575    12

Traccia STARLINK-11699 in tempo reale con AllMySat

Download on the App Store